Starlink 11201

operational
NORAD ID: 60113 Int'l Des: 2024-118 Owner: SPXS Country: US Constellation: starlink
LEOCIRCULAR

关于 Starlink 11201

正在加载描述...

实时位置

正在加载3D地球...

即将过境

高度历史

Altitude vs Time

uPlot chart will show altitude changes over time

两行轨道根数

1 60113U 24118A 26095.20551528 -.00002314 00000-0 -14252-4 0 9997
2 60113 53.1587 90.8640 0000984 88.3902 271.7229 15.69702820102159
Epoch: Apr 5, 2026 • Age: 11 hours

当前状态

高度 364.3 km
速度 7.70 km/s
星下点 47.03°N, 69.14°E
发射日期 Jun 24, 2024
运行时间 1.7 years
类型 internet

技术详情

分类 Payload
质量 960.00 kg
干质量 910.00 kg
总质量 960.00 kg
长度 0.30 m
直径 4.10 m
跨度 29.00 m
形状 Box + pan
制造商 SPXS
平台类型 Starlink V2MD
阶段状态 In Orbit
所有者/国家 SPXS/US

大型星座

Loading constellations...